• In United Kingdom
  • List of Countries
  • For 7 days
  • Water Temperature
  • Satellite Maps
  • Weather Map
  • Weather Widgets
  • user-avatar
    Login

    Hourly Weather Fresnillo

    Today, 16 January, Tuesday

    Time Temperature Precipitation Wind Pressure Humidity
    00:00 +9°C° 0 mm 2 mps 585 mmHg 38%
    01:00 +9°C° 0 mm 2 mps 585 mmHg 39%
    02:00 +9°C° 0 mm 2 mps 585 mmHg 40%
    03:00 +9°C° 0 mm 1 mps 584 mmHg 41%
    04:00 +9°C° 0 mm 1 mps 584 mmHg 43%
    05:00 +8°C° 0 mm 1 mps 584 mmHg 45%
    06:00 +9°C° 0 mm 1 mps 585 mmHg 42%
    07:00 +10°C° 0 mm 1 mps 586 mmHg 39%
    08:00 +11°C° 0 mm 1 mps 586 mmHg 36%
    09:00 +13°C° 0 mm 1 mps 587 mmHg 33%
    10:00 +15°C° 0 mm 2 mps 587 mmHg 29%
    11:00 +16°C° 0 mm 2 mps 588 mmHg 26%
    12:00 +17°C° 0 mm 2 mps 588 mmHg 24%
    13:00 +18°C° 0 mm 2 mps 588 mmHg 23%
    14:00 +19°C° 0 mm 2 mps 587 mmHg 21%
    15:00 +19°C° 0 mm 3 mps 587 mmHg 23%
    16:00 +18°C° 0 mm 4 mps 587 mmHg 24%
    17:00 +18°C° 0 mm 4 mps 587 mmHg 26%
    18:00 +15°C° 0 mm 5 mps 586 mmHg 35%
    19:00 +11°C° 0 mm 6 mps 586 mmHg 44%
    20:00 +9°C° 0 mm 7 mps 585 mmHg 53%
    21:00 +8°C° 0 mm 6 mps 585 mmHg 58%
    22:00 +8°C° 0 mm 5 mps 585 mmHg 64%
    23:00 +7°C° 0 mm 4 mps 585 mmHg 70%

    Tomorrow, 17 January, Wednesday

    Time Temperature Precipitation Wind Pressure Humidity
    00:00 +6°C° 0 mm 4 mps 585 mmHg 72%
    01:00 +6°C° 0 mm 4 mps 585 mmHg 75%
    02:00 +5°C° 0 mm 3 mps 585 mmHg 77%
    03:00 +5°C° 0 mm 3 mps 585 mmHg 79%
    04:00 +5°C° 0 mm 3 mps 585 mmHg 80%
    05:00 +4°C° 0 mm 3 mps 585 mmHg 82%
    06:00 +5°C° 0 mm 3 mps 585 mmHg 78%
    07:00 +5°C° 0 mm 3 mps 586 mmHg 75%
    08:00 +7°C° 0 mm 3 mps 586 mmHg 72%
    09:00 +9°C° 0 mm 3 mps 587 mmHg 60%
    10:00 +11°C° 0 mm 4 mps 588 mmHg 48%
    11:00 +14°C° 0 mm 4 mps 589 mmHg 36%
    12:00 +15°C° 0 mm 4 mps 588 mmHg 31%
    13:00 +17°C° 0 mm 4 mps 588 mmHg 26%
    14:00 +19°C° 0 mm 4 mps 588 mmHg 20%
    15:00 +18°C° 0 mm 4 mps 587 mmHg 21%
    16:00 +18°C° 0 mm 3 mps 587 mmHg 22%
    17:00 +18°C° 0 mm 3 mps 587 mmHg 22%
    18:00 +16°C° 0 mm 3 mps 586 mmHg 27%
    19:00 +13°C° 0 mm 4 mps 586 mmHg 32%
    20:00 +11°C° 0 mm 4 mps 586 mmHg 37%
    21:00 +10°C° 0 mm 4 mps 586 mmHg 41%
    22:00 +8°C° 0 mm 4 mps 585 mmHg 45%
    23:00 +7°C° 0 mm 4 mps 585 mmHg 48%

    Day after tomorrow, 18 January, Thursday

    Time Temperature Precipitation Wind Pressure Humidity
    00:00 +8°C° 0 mm 3 mps 585 mmHg 51%
    01:00 +7°C° 0 mm 3 mps 584 mmHg 53%
    02:00 +5°C° 0 mm 3 mps 584 mmHg 55%
    03:00 +5°C° 0 mm 3 mps 584 mmHg 57%
    04:00 +5°C° 0 mm 3 mps 583 mmHg 59%
    05:00 +4°C° 0 mm 3 mps 583 mmHg 60%
    06:00 +5°C° 0 mm 3 mps 584 mmHg 58%
    07:00 +7°C° 0 mm 3 mps 585 mmHg 55%
    08:00 +8°C° 0 mm 3 mps 586 mmHg 52%
    09:00 +10°C° 0 mm 4 mps 586 mmHg 43%
    10:00 +13°C° 0 mm 5 mps 587 mmHg 35%
    11:00 +15°C° 0 mm 5 mps 588 mmHg 26%
    12:00 +16°C° 0 mm 6 mps 588 mmHg 23%
    13:00 +17°C° 0 mm 6 mps 587 mmHg 20%
    14:00 +18°C° 0 mm 7 mps 587 mmHg 17%
    15:00 +19°C° 0 mm 6 mps 586 mmHg 18%
    16:00 +17°C° 0 mm 5 mps 586 mmHg 19%
    17:00 +16°C° 0 mm 5 mps 585 mmHg 20%
    18:00 +15°C° 0 mm 4 mps 585 mmHg 24%
    19:00 +13°C° 0 mm 4 mps 585 mmHg 27%
    20:00 +11°C° 0 mm 4 mps 585 mmHg 31%
    21:00 +10°C° 0 mm 3 mps 585 mmHg 37%
    22:00 +9°C° 0 mm 2 mps 585 mmHg 42%
    23:00 +9°C° 0 mm 1 mps 585 mmHg 47%

    19 January, Friday

    Time Temperature Precipitation Wind Pressure Humidity
    00:00 +8°C° 0 mm 1 mps 584 mmHg 50%
    01:00 +8°C° 0 mm 1 mps 584 mmHg 53%
    02:00 +7°C° 0 mm 1 mps 583 mmHg 56%
    03:00 +7°C° 0 mm 1 mps 583 mmHg 59%
    04:00 +6°C° 0 mm 1 mps 583 mmHg 61%
    05:00 +6°C° 0 mm 1 mps 582 mmHg 64%
    06:00 +7°C° 0 mm 1 mps 583 mmHg 61%
    07:00 +7°C° 0 mm 0 mps 584 mmHg 58%
    08:00 +8°C° 0 mm 0 mps 585 mmHg 54%
    09:00 +10°C° 0 mm 1 mps 586 mmHg 45%
    10:00 +12°C° 0 mm 1 mps 586 mmHg 35%
    11:00 +14°C° 0 mm 1 mps 587 mmHg 26%
    12:00 +15°C° 0 mm 2 mps 586 mmHg 22%
    13:00 +16°C° 0 mm 2 mps 586 mmHg 19%
    14:00 +17°C° 0 mm 3 mps 586 mmHg 15%
    15:00 +17°C° 0 mm 2 mps 585 mmHg 16%
    16:00 +17°C° 0 mm 2 mps 585 mmHg 16%
    17:00 +17°C° 0 mm 2 mps 585 mmHg 17%
    18:00 +15°C° 0 mm 2 mps 584 mmHg 19%
    19:00 +13°C° 0 mm 2 mps 584 mmHg 21%
    20:00 +12°C° 0 mm 2 mps 584 mmHg 23%
    21:00 +10°C° 0 mm 2 mps 584 mmHg 24%
    22:00 +10°C° 0 mm 2 mps 584 mmHg 25%
    23:00 +9°C° 0 mm 2 mps 584 mmHg 26%

    20 January, Saturday

    Time Temperature Precipitation Wind Pressure Humidity
    00:00 +8°C° 0 mm 2 mps 583 mmHg 28%
    01:00 +8°C° 0 mm 2 mps 583 mmHg 29%
    02:00 +7°C° 0 mm 2 mps 582 mmHg 31%
    03:00 +7°C° 0 mm 2 mps 582 mmHg 31%
    04:00 +6°C° 0 mm 2 mps 582 mmHg 32%
    05:00 +6°C° 0 mm 2 mps 582 mmHg 33%
    06:00 +7°C° 0 mm 2 mps 583 mmHg 31%
    07:00 +8°C° 0 mm 3 mps 584 mmHg 30%
    08:00 +9°C° 0 mm 3 mps 585 mmHg 28%
    09:00 +12°C° 0 mm 4 mps 585 mmHg 23%
    10:00 +14°C° 0 mm 5 mps 586 mmHg 18%
    11:00 +16°C° 0 mm 5 mps 587 mmHg 13%
    12:00 +17°C° 0 mm 6 mps 586 mmHg 12%
    13:00 +19°C° 0 mm 6 mps 586 mmHg 11%
    14:00 +20°C° 0 mm 7 mps 585 mmHg 10%
    15:00 +19°C° 0 mm 6 mps 585 mmHg 11%
    16:00 +19°C° 0 mm 5 mps 585 mmHg 13%
    17:00 +17°C° 0 mm 5 mps 584 mmHg 14%
    18:00 +15°C° 0 mm 5 mps 584 mmHg 16%
    19:00 +13°C° 0 mm 4 mps 584 mmHg 18%
    20:00 +11°C° 0 mm 4 mps 584 mmHg 20%
    21:00 +11°C° 0 mm 4 mps 584 mmHg 21%
    22:00 +10°C° 0 mm 4 mps 584 mmHg 23%
    23:00 +8°C° 0 mm 4 mps 584 mmHg 24%

    21 January, Sunday

    Time Temperature Precipitation Wind Pressure Humidity
    00:00 +8°C° 0 mm 3 mps 583 mmHg 26%
    01:00 +8°C° 0 mm 3 mps 583 mmHg 27%
    02:00 +7°C° 0 mm 3 mps 582 mmHg 28%
    03:00 +7°C° 0 mm 3 mps 582 mmHg 29%
    04:00 +5°C° 0 mm 3 mps 582 mmHg 29%
    05:00 +5°C° 0 mm 3 mps 582 mmHg 30%
    06:00 +7°C° 0 mm 2 mps 583 mmHg 28%
    07:00 +8°C° 0 mm 2 mps 584 mmHg 26%
    08:00 +9°C° 0 mm 2 mps 585 mmHg 24%
    09:00 +13°C° 0 mm 2 mps 586 mmHg 20%
    10:00 +15°C° 0 mm 1 mps 586 mmHg 16%
    11:00 +18°C° 0 mm 1 mps 587 mmHg 12%
    12:00 +18°C° 0 mm 2 mps 587 mmHg 11%
    13:00 +18°C° 0 mm 2 mps 586 mmHg 10%
    14:00 +19°C° 0 mm 2 mps 586 mmHg 9%
    15:00 +19°C° 0 mm 2 mps 586 mmHg 11%
    16:00 +18°C° 0 mm 3 mps 586 mmHg 12%
    17:00 +18°C° 0 mm 3 mps 585 mmHg 13%
    18:00 +16°C° 0 mm 3 mps 585 mmHg 14%
    19:00 +13°C° 0 mm 3 mps 585 mmHg 16%
    20:00 +12°C° 0 mm 3 mps 584 mmHg 17%
    21:00 +11°C° 0 mm 3 mps 584 mmHg 18%
    22:00 +10°C° 0 mm 2 mps 584 mmHg 20%
    23:00 +9°C° 0 mm 2 mps 584 mmHg 21%
    Show more